Regional Weather Roundup
Issued by NWS State College, PA

Home | Current Version | Previous Version | Graphics & Text | Print | Product List | Glossary Off
Versions: 1 2 3 4 5 6 7 8 9 10 11 12 13 14 15 16 17 18 19 20 21 22 23 24 25 26 27 28 29 30 31 32 33 34 35 36 37 38 39 40 41 42 43 44 45 46 47 48 49 50

000
ASUS41 KCTP 021510
RWRCTP

REGIONAL WEATHER ROUNDUP
NATIONAL WEATHER SERVICE STATE COLLEGE PA
1100 AM EDT TUE SEP 02 2014

Note: "fair" indicates few or no clouds below 12,000 feet with no
significant weather and/or obstructions to visibility.

* = STATION THAT DOES NOT REPORT PRECIPITATION /E.G. RAIN...SNOW...ETC/
    THUNDER OR FOG.

PAZ002>004-007>009-013>016-020>023-029>032-021600-
WESTERN PENNSYLVANIA

CITY           SKY/WX    TMP DP  RH WIND       PRES   REMARKS
ERIE           PTSUNNY   78  67  68 SW7       29.90F
MEADVILLE      MOSUNNY   75  66  73 SW7       29.94F
FRANKLIN*      PTSUNNY   75  64  69 SW10      29.97F
NEW CASTLE     FAIR      80  71  74 VRB3      29.96F
BEAVER COUNTY  CLOUDY    75  68  78 SW9       29.98F
BUTLER*        CLOUDY    75  68  78 SW7       30.00S
PITTSBURGH INT CLOUDY    75  69  81 SW8       29.98F
PITTSBURGH     CLOUDY    74  68  81 SW7       29.98F
INDIANA*       CLOUDY    77  70  78 W8        30.03F
LATROBE        PTSUNNY   79  73  83 SW12      30.01F
WASHINGTON CO* CLOUDY    73  72  94 SW5       30.00F
$$

PAZ004>006-010>012-017>019-024>028-033>037-041-042-045-046-049>053-021600-
CENTRAL PENNSYLVANIA

CITY           SKY/WX    TMP DP  RH WIND       PRES   REMARKS
BRADFORD       PTSUNNY   75  65  70 SW10      29.98S
DUBOIS         PTSUNNY   74  65  73 SW14      29.98F
CLEARFIELD     PTSUNNY   76  66  71 SW12      29.99F
JOHNSTOWN      CLOUDY    74  65  73 SW12      30.04F
ALTOONA        PTSUNNY   77  67  71 W9        30.02S
STATE COLLEGE  MOSUNNY   79  68  69 W13       29.99S
WILLIAMSPORT   MOSUNNY   81  70  69 VRB3      29.94S
SELINSGROVE    SUNNY     83  72  69 VRB6      29.97S
FT INDIANTOWN  MOSUNNY   84  76  77 SW8       29.97S
CAPITAL CITY   PTSUNNY   82  69  64 W9        29.97R
HARRISBURG     PTSUNNY   84  71  65 W8        29.97R
YORK           SUNNY     84  70  62 VRB7      29.98S
$$

PAZ038>040-043-044-047-048-054-055-060>062-067>071-021600-
EASTERN PENNSYLVANIA

CITY           SKY/WX    TMP DP  RH WIND       PRES   REMARKS
SCRANTON       MOSUNNY   82  68  62 SW8       29.96S
MOUNT POCONO   SUNNY     79  66  64 W8        30.01S
ALLENTOWN      MOSUNNY   84  69  60 NW9       29.96R
QUAKERTOWN*    MOSUNNY   84  72  65 MISG      29.98S
READING        SUNNY     85  71  63 W8        29.95S
LANCASTER      MOSUNNY   83  70  64 W8        29.97S
COATESVILLE    MOSUNNY   84  73  70 W6        30.00R
POTTSTOWN      MOSUNNY   84  71  65 CALM      29.98S
BLUE BELL      SUNNY     86  72  62 W7        29.96S
DOYLESTOWN     SUNNY     85  71  63 VRB5      29.96S
WILLOW GROVE   NOT AVBL
NORTH PHILA    SUNNY     89  69  51 NW7       29.96F
PHILADELPHIA   MOSUNNY   88  70  55 SW10      29.96S
$$



USA.gov is the U.S. government's official web portal to all federal, state and local government web resources and services.